This is the latest recevied weather packets stored in our database for station/object 7L2IWN-13. If no packets are shown the sender has not sent any weather packets the latest 10 day(s).
| Time | Temp. | Humidity | Pressure | Rain* | Wind** | Luminosity | Snow |
|---|---|---|---|---|---|---|---|
| 1778158326 | 18.33° C | 94% | 1009.4 hPa | 0 mm | - | - | - |
| 1778157605 | 18.33° C | 94% | 1009.3 hPa | 0 mm | - | - | - |
| 1778156885 | 18.89° C | 93% | 1009.3 hPa | 0 mm | - | - | - |
| 1778156165 | 18.89° C | 93% | 1009.2 hPa | 0 mm | - | - | - |
| 1778155445 | 18.89° C | 93% | 1009.5 hPa | 0 mm | - | - | - |
| 1778154725 | 19.44° C | 92% | 1009.3 hPa | 0 mm | - | - | - |
| 1778154006 | 19.44° C | 92% | 1009.3 hPa | 0 mm | - | - | - |
| 1778153285 | 19.44° C | 90% | 1009.3 hPa | 0 mm | - | - | - |
| 1778152564 | 19.44° C | 90% | 1009.1 hPa | 0 mm | - | - | - |
| 1778151847 | 20° C | 89% | 1009 hPa | 0 mm | - | - | - |
| 1778151124 | 20° C | 89% | 1008.9 hPa | 0 mm | - | - | - |
| 1778150405 | 20° C | 88% | 1009.1 hPa | 0 mm | - | - | - |
| 1778149686 | 20.56° C | 88% | 1008.8 hPa | 0 mm | - | - | - |
| 1778148964 | 20.56° C | 87% | 1008.8 hPa | 0 mm | - | - | - |
| 1778148244 | 20.56° C | 86% | 1008.7 hPa | 0 mm | - | - | - |
| 1778147524 | 21.67° C | 85% | 1008.5 hPa | 0 mm | - | - | - |
| 1778146804 | 21.67° C | 84% | 1008.4 hPa | 0 mm | - | - | - |
| 1778146084 | 22.22° C | 82% | 1008.3 hPa | 0 mm | - | - | - |
| 1778145368 | 22.78° C | 78% | 1008.1 hPa | 0 mm | - | - | - |
| 1778144646 | 23.33° C | 77% | 1007.8 hPa | 0 mm | - | - | - |
| 1778143923 | 23.33° C | 77% | 1007.8 hPa | 0 mm | - | - | - |
| 1778143205 | 23.89° C | 76% | 1007.7 hPa | 0 mm | - | - | - |
| 1778142484 | 23.89° C | 74% | 1007.5 hPa | 0 mm | - | - | - |
| 1778141763 | 23.89° C | 74% | 1007.7 hPa | 0 mm | - | - | - |
| 1778141046 | 24.44° C | 72% | 1007.6 hPa | 0 mm | - | - | - |
* Rain latest hour (hover to see other rain measurements)
** Current wind speed in m/s (hover to see current wind gust speed)